STARLINK-31962, 59936

Orbit data source: Space-Track

STARLINK-31962, 59936 is a payload satellite owned by SpaceX/Seattle (US) in LEO that was launched on Sat, 01 Jun 2024 UTC via an FALCON 9 launch vehicle from the Air Force Eastern Test Range (AFETR). Payload-class satellites include a variety of spacecraft equipped with specific instruments for various scientific and technological missions. These include communications satellites like Starlink; space stations such as the ISS; scientific satellites like the Hubble; Earth observation satellites from companies like Planet Labs, Umbra, and HawkEye 360; GPS; miniature CubeSats for education and research; and military/defense satellites.

Loading next visibility...
Identifier
59936, 2024-106Q
Orbit
LEO
Country
Flag of USUS
Related business
Manufacturer
SpaceX/Seattle
Mission
Operational Commercial Communications
Bus & Motor
STARLINK V2M, Unknown motor
Mass
730 kg wet, ~700 kg dry
Launch date (UTC)
2024-06-01 (2 years ago)
Launch vehicle
FALCON 9
Launch site
Air Force Eastern Test Range (AFETR)
Object type
Payload
Rocket body
Debris
Shape & HBR
Box + 2 Pan, 17.7 m
Radar Cross Section
33.884 m², Large (>1 m²)

Expand to show TLE details & history
Last TLE update: 17 hours ago

TLE from 17 hours ago
0 STARLINK-31962
1 59936U 24106Q   26197.66025317  .00000514  00000-0  28182-4 0  9995
2 59936  43.0020 324.4691 0001115 274.2884  85.7840 15.27581012120248
Epoch: 2026-07-16T15:50Z
TLE epoch observation values (Epoch: 2026-07-16T15:50:45.873Z)
Latitude
-0.00005°
Longitude
152.27939°
Altitude
482.766 km
Speed
7.626 km/s
True Right ascension
21h 37m 52s
True Declination
0° 00' 00"
Sunlit
Object was in full shadow at epoch
Visualization orbit readout
Latitude
Unknown
Longitude
Unknown
Altitude
Unknown
Speed
Unknown
Apparent Right ascension
Unknown
Apparent Declination
Unknown
Sunlit
N/A
Visualization observer readout
Local Sidereal Time
21:02:39
Azimuth
Unknown
Elevation
Unknown
Doppler factor
Unknown
Orbital elements
Apogee altitude
485.756 km
Perigee altitude
484.226 km
Semi-major axis
6,863.128 km
Eccentricity
0.00011
Inclination
43.002°
RAAN
324.4691°
Arg. of periapsis
274.2884°
True anomaly
85.79674°
Mean anomaly
85.784°
Eccentric anomaly
85.79037°
Mean motion
3.81733 °/min
Orbital period
94.31 mins
BSTAR
0.000028182
Loading maneuver chart data...
Computing Atmospheric mass density...
Loading historical data...
Loading historical data...
Loading historical data...
Loading historical data...
Loading historical data...
Loading historical data...
Loading historical data...

Documentation

Showing up to 5 results
|